RH
99 98 96 86 91 99 99 100 100 95 86 68 66 48 48 86 86 82 96 61 58 57 36 70 60 53 53 59 54 46 66 64 50 40 34 24 25 22 19 18 15 17 19 22 36
98 97 100 100 98 98 100 100 100 94 90 77 62 48 52 80 83 93 68 57 45 41 76 62 50 48 49 47 52 55 65 57 35 29 29 24 24 22 21 19 18 16 19 20 30
91 86 91 100 98 93 98 97 100 100 100 86 64 49 62 81 89 57 52 37 51 59 72 59 60 58 61 52 43 49 66 46 41 34 30 28 26 24 24 26 20 20 19 19 30
96 95 94 97 92 92 90 100 98 100 97 92 67 45 78 81 67 52 34 47 95 85 73 68 70 67 68 61 43 46 37 37 37 35 34 34 30 28 25 25 28 27 32 30 31
80 91 95 95 93 52 88 100 90 100 99 91 61 51 85 85 65 50 49 79 73 74 71 67 70 66 64 54 50 52 46 38 34 34 34 34 33 32 30 31 32 33 33 40 42
82 80 88 69 86 29 20 90 95 100 98 91 56 87 84 74 59 57 63 70 62 64 68 67 75 68 71 70 68 53 50 50 48 46 35 35 34 32 31 28 32 36 35 41 60
83 74 80 65 56 31 21 62 97 100 96 81 72 90 95 71 59 58 65 64 68 70 69 70 76 83 84 70 64 65 63 59 53 44 45 37 45 40 31 28 28 34 36 42 63
84 80 73 84 57 27 54 72 100 100 93 89 86 93 83 73 74 67 68 69 69 76 86 84 92 84 89 82 67 67 70 86 49 43 41 44 62 39 31 27 27 33 36 46 61
93 95 78 73 68 33 89 100 100 100 88 92 84 95 70 77 67 70 68 60 63 88 87 84 87 91 88 92 85 67 88 81 67 45 48 49 58 45 34 30 28 29 47 48 57
97 97 81 74 65 51 80 100 99 99 90 98 97 94 77 68 68 58 58 57 67 80 88 91 86 87 90 96 92 80 81 64 61 59 81 64 59 49 38 37 43 46 54 53 53
84 92 81 75 67 49 70 99 97 100 100 91 82 67 65 68 65 64 58 69 70 65 76 85 98 94 68 66 73 69 76 77 54 48 90 68 56 49 54 76 53 56 58 69 56
92 83 80 78 64 74 68 98 92 93 95 90 83 78 76 76 61 62 63 64 64 74 66 94 93 64 60 58 81 92 84 70 53 65 85 65 56 50 56 80 56 47 53 65 67
89 93 84 85 72 98 92 99 99 92 89 79 79 82 78 74 56 56 67 58 55 62 56 95 67 48 74 82 93 76 74 62 82 90 67 74 77 64 50 61 57 52 56 59 76
84 96 97 90 71 96 99 97 100 96 100 85 71 73 77 75 61 51 60 60 47 57 49 61 60 64 68 82 70 78 56 59 95 98 100 72 96 82 85 84 72 56 61 64 88
86 96 98 89 95 95 98 99 97 97 98 89 82 88 76 66 56 56 66 65 58 48 54 61 65 91 82 73 75 71 65 76 80 92 100 98 91 98 95 86 70 73 69 89 100
93 95 93 76 61 89 93 94 91 99 97 99 81 78 72 64 44 57 65 67 65 61 54 62 54 73 71 71 71 69 78 69 68 84 99 100 99 100 100 98 87 89 100 100 93
87 93 83 97 88 85 84 91 100 98 91 87 75 66 74 61 60 47 50 67 79 91 83 62 64 62 75 91 83 84 94 97 98 99 98 100 98 100 98 87 87 94 100 100 93
67 77 78 98 85 93 86 98 98 93 99 61 59 60 90 54 58 51 50 60 51 55 89 88 94 78 83 92 96 94 96 99 97 97 99 78 98 100 92 89 86 98 100 99 97
77 84 94 85 76 80 93 99 100 99 77 61 57 59 58 51 51 49 51 60 56 55 98 89 97 75 82 82 84 85 92 56 98 77 97 100 100 96 88 88 76 82 98 99 89
78 84 84 98 92 92 95 100 100 74 65 57 73 48 54 49 49 52 51 54 66 58 67 93 98 86 84 86 81 89 65 77 86 96 96 91 91 100 99 92 81 75 83 86 84
80 84 90 95 91 81 97 100 98 64 62 72 74 48 39 46 61 92 62 66 62 66 76 85 100 97 90 83 74 74 62 55 50 59 71 86 97 80 87 73 75 78 70 59 60
83 90 99 82 92 97 100 97 95 66 57 57 54 44 42 43 55 61 71 73 66 80 96 77 93 97 68 56 52 60 52 46 78 62 68 86 92 55 52 53 56 58 55 61 51
97 98 95 97 87 90 98 84 85 65 59 61 56 46 45 55 64 57 58 62 54 57 65 55 72 94 70 61 53 56 44 45 59 78 68 86 85 44 49 48 46 46 45 46 48
97 99 91 97 95 65 91 88 71 67 59 57 51 41 47 49 48 57 58 59 60 53 58 61 66 82 90 79 68 69 51 47 66 78 64 67 64 55 54 52 47 45 47 51 53
92 89 84 94 79 74 81 76 54 66 58 56 49 46 48 52 53 59 52 53 52 47 49 55 83 83 54 53 57 58 55 50 58 50 70 58 57 52 52 51 46 44 47 52 56
83 74 76 72 80 74 80 66 55 61 67 57 54 46 52 62 58 56 49 52 55 41 45 48 81 62 56 48 52 61 56 56 56 44 47 49 54 44 40 40 43 44 48 53 56
83 72 65 84 81 66 59 59 58 60 60 56 56 54 64 65 50 47 45 45 48 55 52 54 72 81 76 59 57 68 58 55 53 56 46 59 52 44 45 47 48 48 53 58 61
Wind_Speed
20 20 21 26 28 21 20 24 15 14 16 13 10 9 8 9 10 8 5 8 7 12 5 3 3 4 6 8 11 10 6 12 15 17 18 23 20 31 31 31 28 33 29 19 8
23 22 21 20 19 26 19 18 23 22 17 16 9 8 8 7 10 14 11 12 11 8 4 3 3 2 8 10 8 9 9 13 12 15 16 20 21 23 26 29 27 27 33 24 15
22 23 22 22 22 22 20 21 27 24 16 15 10 8 5 4 9 5 9 9 7 6 4 3 1 4 5 11 16 17 18 14 20 27 26 20 25 31 24 20 26 23 25 33 20
24 22 22 23 23 22 23 13 20 25 16 12 8 7 4 3 3 7 10 3 8 5 4 1 1 1 2 7 10 16 23 23 22 23 23 19 28 26 30 27 30 28 26 25 27
24 23 23 23 23 22 18 17 18 23 17 12 8 6 4 5 10 11 6 9 5 5 6 5 6 7 7 9 12 15 16 24 24 24 27 26 24 24 31 29 31 33 27 22 26
24 24 22 23 23 23 18 20 16 26 20 14 8 7 6 9 6 8 10 7 5 5 5 7 6 6 8 9 12 12 21 21 22 27 27 21 22 25 31 31 32 34 31 25 22
25 24 23 22 23 24 18 16 16 22 15 11 8 6 7 10 5 10 12 7 5 5 5 5 6 9 3 7 10 18 17 19 22 19 20 22 23 21 27 33 32 32 31 28 25
25 21 24 22 22 23 18 15 24 19 12 9 10 8 6 8 10 11 8 6 5 5 2 4 4 6 7 9 9 7 13 13 9 14 21 18 25 18 26 29 33 31 29 23 28
24 18 22 22 19 18 13 11 17 15 8 11 11 8 3 7 12 11 9 8 9 5 4 3 7 6 5 3 5 9 7 12 14 14 13 17 23 18 28 27 28 32 21 18 30
23 20 15 21 17 13 10 4 9 11 13 12 7 6 9 7 10 8 8 10 8 6 5 4 1 1 3 5 5 9 8 13 16 4 12 15 20 17 18 23 27 17 17 21 29
19 17 16 16 16 12 7 13 10 4 10 5 10 1 14 8 9 6 9 9 7 7 4 7 2 7 10 11 15 18 18 18 18 11 5 16 14 16 5 22 21 21 20 16 22
17 15 13 11 14 10 17 6 6 1 3 17 9 9 6 4 5 8 11 9 10 7 8 2 9 11 12 14 15 17 18 19 15 9 8 8 14 12 15 23 20 18 13 13 12
17 13 13 10 8 3 15 12 3 6 2 8 13 7 3 5 3 14 11 7 6 7 8 8 9 9 9 13 13 11 16 15 8 10 7 6 12 16 6 7 9 12 14 12 9
20 20 8 6 5 4 5 14 8 7 2 6 5 4 7 4 3 7 9 4 5 4 7 8 14 10 12 10 9 11 6 14 5 2 4 12 2 3 6 12 12 15 16 12 18
6 3 10 7 1 1 2 4 6 2 4 5 7 7 9 6 9 7 6 5 6 5 3 4 6 0 8 6 3 7 11 14 9 8 3 7 3 1 5 5 9 7 15 13 20
5 13 9 0 2 1 3 6 8 2 2 4 5 6 7 7 5 8 5 4 6 4 7 12 10 4 5 6 8 10 9 10 9 7 3 3 2 2 4 4 5 9 16 22 24
14 12 10 4 2 2 4 9 2 3 3 5 6 7 4 6 5 7 7 6 2 2 3 4 10 1 2 5 5 6 5 3 3 1 2 1 1 1 7 5 2 11 17 24 22
11 11 9 7 6 5 4 1 3 6 6 5 6 8 2 8 4 5 3 2 8 5 3 3 3 2 3 2 3 3 3 3 4 3 2 3 6 6 9 14 21 23 23 27 26
9 11 10 6 5 4 5 1 5 3 3 6 8 5 5 3 1 4 4 2 2 2 2 5 2 4 2 3 3 2 4 5 3 5 1 4 1 11 11 9 19 20 21 24 21
11 10 14 7 4 6 1 4 3 6 7 2 3 1 4 4 2 2 5 4 2 3 6 2 3 3 5 5 10 6 8 4 1 5 4 3 5 4 8 10 15 14 18 17 19
9 6 9 5 9 6 3 4 3 6 3 3 6 4 8 4 2 2 3 3 3 4 4 1 1 1 4 2 4 2 4 3 2 3 2 3 3 5 10 10 14 12 19 20 22
8 3 7 7 4 2 3 5 4 9 2 3 5 9 4 3 3 4 5 4 1 2 2 4 2 1 0 4 3 4 6 5 1 5 6 5 4 7 7 9 17 17 21 24 23
6 5 6 5 2 2 2 3 4 7 6 6 4 5 5 4 2 4 4 3 3 4 4 4 2 3 3 2 1 4 8 5 2 2 3 4 3 5 8 11 17 17 21 22 22
5 2 3 6 3 2 2 4 3 3 2 6 3 0 2 3 3 3 4 1 4 4 5 4 5 4 3 2 3 5 9 7 4 5 9 10 12 8 8 8 13 20 19 18 19
3 3 3 1 1 6 3 2 3 4 2 4 1 2 5 3 5 4 3 4 5 3 2 4 3 5 4 5 4 6 8 11 8 7 8 10 12 9 9 9 15 19 18 17 15
3 4 2 9 6 5 1 1 6 4 6 5 4 6 11 7 6 5 3 6 5 2 2 0 1 2 4 6 5 7 10 9 9 10 10 12 10 9 18 18 15 16 17 16 14
7 9 5 2 1 1 2 4 6 6 2 8 9 6 8 5 9 6 6 7 4 5 5 3 1 3 2 4 6 4 5 6 3 7 4 5 7 7 7 10 11 12 13 13 12
Wind_Direction
331 324 316 271 272 284 276 267 264 280 286 287 282 301 258 266 283 291 265 240 189 243 228 148 262 258 263 251 242 246 247 246 247 248 267 275 285 285 286 285 275 261 267 267 266
326 323 322 325 278 264 272 273 263 274 272 281 282 289 255 274 283 263 256 250 231 194 116 208 248 260 264 253 227 208 234 253 262 275 283 289 283 279 279 280 275 267 266 260 265
325 318 319 323 320 270 262 266 253 255 257 271 282 276 239 276 294 200 221 183 184 154 145 160 264 274 287 272 247 229 245 275 283 291 291 289 283 284 281 273 271 275 269 263 268
320 326 322 317 315 313 250 266 258 251 245 259 276 272 210 185 262 184 170 175 164 164 168 192 250 261 229 271 249 262 266 267 274 277 283 285 288 285 275 274 284 286 300 297 265
312 315 322 318 316 313 264 267 244 231 249 252 258 227 187 220 248 205 210 166 172 168 185 213 232 260 253 265 275 270 274 274 268 260 265 270 270 273 276 285 272 291 285 298 289
308 312 316 322 319 313 293 252 241 223 246 242 230 189 194 237 177 215 166 182 175 205 210 236 229 257 292 263 270 282 293 291 280 278 256 255 260 260 265 272 273 280 280 282 283
304 308 310 318 321 317 298 273 240 207 232 213 197 195 231 219 202 178 172 187 203 208 238 255 249 214 179 256 279 295 278 276 268 262 254 268 255 247 254 259 262 264 272 268 289
303 308 305 309 324 319 304 264 212 235 231 207 166 175 234 207 192 187 182 207 214 213 211 270 244 213 226 298 294 278 260 269 257 250 245 232 261 247 250 245 250 260 263 261 277
289 294 299 305 318 325 328 188 202 215 220 169 158 180 239 220 207 200 198 207 192 196 191 142 127 161 172 238 284 238 261 242 268 238 266 224 253 247 246 251 242 248 260 251 264
292 295 297 300 308 317 304 261 155 149 157 152 138 187 221 198 168 166 186 188 181 181 173 172 143 208 249 195 248 302 297 288 283 306 320 245 243 249 255 252 251 216 260 245 256
301 301 292 290 304 297 247 150 125 125 176 172 188 172 133 139 163 170 187 186 196 203 222 140 193 234 240 229 248 270 282 287 286 289 250 244 243 241 247 324 253 171 234 254 247
297 299 292 288 310 300 198 194 203 125 223 224 223 195 117 148 152 167 178 202 184 210 224 152 245 247 258 263 270 272 274 280 283 323 182 267 238 247 202 207 231 225 230 262 237
301 294 272 269 301 199 195 214 238 180 234 166 198 194 164 202 203 178 188 204 254 232 223 226 260 282 265 252 257 258 259 272 301 326 248 248 250 249 202 1 296 236 239 254 269
299 279 248 252 289 243 197 247 218 148 199 141 163 186 176 174 217 171 196 272 209 255 254 263 254 245 265 256 279 271 292 288 225 288 268 198 249 91 336 285 259 224 233 248 171
298 30 180 202 98 23 52 130 150 169 190 119 124 152 160 182 137 188 187 197 267 262 225 254 316 299 292 287 301 259 321 305 233 257 279 209 231 108 323 254 197 189 207 161 139
94 132 173 139 203 312 15 156 140 212 112 118 127 160 156 208 176 138 189 206 275 299 258 264 257 220 277 307 272 305 297 300 285 265 206 18 321 56 354 320 276 143 133 128 110
109 133 111 82 104 117 107 139 179 291 203 135 143 172 157 166 173 175 180 194 199 257 234 215 227 91 359 325 289 252 292 269 238 259 5 354 141 245 353 353 158 118 91 112 119
94 80 106 51 41 116 106 49 252 65 57 127 148 158 162 143 150 166 197 263 220 235 290 244 179 28 30 228 320 352 214 290 332 353 31 20 7 17 13 36 97 89 92 102 122
69 76 59 35 58 81 29 302 25 48 343 128 147 126 106 139 242 188 221 273 122 205 315 340 84 127 271 326 277 188 235 302 261 210 36 17 53 50 51 49 80 87 93 104 105
67 72 42 94 76 104 30 30 65 359 2 139 23 54 132 143 207 207 147 45 97 39 50 353 276 21 321 300 241 244 318 346 241 354 51 63 43 56 28 67 78 75 82 95 90
71 67 19 119 84 43 16 49 342 346 343 21 350 121 109 133 56 228 90 90 39 86 43 341 265 322 245 188 6 258 328 265 272 166 47 71 34 47 67 66 85 89 88 88 95
66 72 86 73 45 11 11 350 340 323 63 325 319 43 91 146 41 35 71 62 76 83 274 202 326 308 95 168 267 280 300 317 24 347 59 94 60 115 90 96 96 93 92 82 82
73 76 137 67 66 71 319 353 322 341 42 16 13 34 346 55 53 60 84 15 328 326 359 345 15 319 146 178 270 323 360 338 353 21 332 90 116 91 103 100 95 94 96 99 95
102 93 41 2 280 107 32 5 354 51 15 6 327 359 270 61 18 119 102 139 299 7 311 298 24 23 88 140 271 343 7 14 38 55 77 98 122 104 83 92 102 101 99 98 98
49 102 185 186 92 97 83 277 53 50 28 341 283 1 338 95 89 51 54 190 191 321 305 43 38 16 69 64 29 22 30 20 50 86 98 130 120 137 141 131 116 120 116 104 94
118 143 111 95 73 88 24 211 63 54 18 22 24 25 49 44 360 85 350 10 41 347 54 58 154 271 54 26 66 59 26 22 11 73 99 110 100 99 107 124 124 122 120 105 94
107 112 121 64 334 240 127 34 69 346 75 26 342 342 53 7 2 43 63 69 68 12 12 28 51 8 355 3 333 25 5 45 18 29 76 129 133 122 122 104 99 100 96 98 95